Simultaneous Nadir Overpasses (SNOs) Predictions

Prediction of SNOs between GOES-16 and NOAA-19 Satellite Orbit:

Table of predicted SNOs for the next 14.0 days since TLE Epoch: 3/4/2023
Index Date Time (GOES-16) GOES-16 Lat,Lon NOAA-19 Lat,Lon Distance(km) Time Diff (sec)
1 03/05/2023 01:42:56 -0.03, -75.19 -1.05, -79.53 495.61 80
2 03/06/2023 01:30:59 -0.03, -75.19 -0.36, -76.61 162.28 80
3 03/07/2023 01:16:21 -0.03, -75.20 0.33, -73.70 171.24 80
4 03/09/2023 13:39:12 0.04, -75.24 0.81, -78.49 371.05 80
5 03/10/2023 13:27:14 0.04, -75.25 0.09, -75.58 36.98 80
6 03/11/2023 13:12:36 0.03, -75.27 -0.58, -72.66 297.30 80
7 03/14/2023 01:35:39 -0.03, -75.28 -0.54, -77.50 253.09 80
8 03/15/2023 01:21:00 -0.03, -75.29 0.11, -74.58 81.00 80
9 03/16/2023 01:09:03 -0.03, -75.30 0.83, -71.67 415.12 80
10 03/17/2023 13:43:49 0.03, -75.34 0.98, -79.36 459.56 80
